Printer-friendly version

IAU Minor Planet Center

Minor Planet Center

MPEC 2005-R46 : COMET C/2005 N1 (JUELS-HOLVORCEM)

The following Minor Planet Electronic Circular may be linked-to from your own Web pages, but must not otherwise be redistributed electronically.


Read MPEC 2005-R45 Read MPEC 2005-R47


M.P.E.C. 2005-R46                                Issued 2005 Sept. 10, 13:46 UT

     The Minor Planet Electronic Circulars contain information on unusual
         minor planets and routine data on comets.  They are published
   on behalf of Commission 20 of the International Astronomical Union by the
          Minor Planet Center, Smithsonian Astrophysical Observatory,
                          Cambridge, MA 02138, U.S.A.

                  Supported in part by the Brinson Foundation
             Prepared using the Tamkin Foundation Computer Network

                              MPC@CFA.HARVARD.EDU
          URL http://cfa-www.harvard.edu/iau/mpc.html  ISSN 1523-6714

                       COMET C/2005 N1 (JUELS-HOLVORCEM)

Observations:
    CK05N010  C2005 08 07.12086 06 52 47.92 +52 31 27.2          14.4 N ER046A01
    CK05N010  C2005 08 07.12231 06 52 48.66 +52 31 27.6          14.3 N ER046A01
    CK05N010  C2005 08 07.12671 06 52 50.92 +52 31 28.8          14.5 N ER046A01
    CK05N010  C2005 08 19.79688 08 33 13.33 +51 10 46.2                 ER046349
    CK05N010  C2005 08 19.79771 08 33 13.66 +51 10 45.2          12.4 T ER046349
    CK05N010  C2005 08 31.79142 09 50 03.49 +46 11 32.8                 ER046349
    CK05N010  C2005 08 31.79309 09 50 04.01 +46 11 29.6          12.4 T ER046349
    CK05N010  C2005 09 01.80499 09 55 31.33 +45 40 29.1                 ER046349
    CK05N010  C2005 09 01.80750 09 55 32.17 +45 40 24.7          12.5 T ER046349
    CK05N010  C2005 09 03.14171 10 02 29.93 +44 58 36.3          14.1 N ER046232
    CK05N010  C2005 09 03.14367 10 02 30.44 +44 58 33.7          14.1 N ER046232
    CK05N010  C2005 09 03.14498 10 02 30.94 +44 58 31.3          14.1 N ER046232

Observer details:
232 Masquefa Observatory.  Observer E. Reina.  0.25-m f/3.3 Schmidt-Cassegrain
    + CCD.
349 Ageo.  Observer K. Kadota.  0.25-m f/5.0 reflector + CCD.
A01 Masia Cal Maciarol Modul 1.  Observer F. Baldris.  0.20-m f/5.0 Newtonian
    reflector + CCD.

Orbital elements:
    C/2005 N1 (Juels-Holvorcem)
T 2005 Aug. 22.0404 TT                                  MPC
q   1.125436             (2000.0)            P               Q
z  +0.001420       Peri.   80.0445      +0.1377098      -0.9894932
                   Node     3.2401      +0.2692928      -0.0053809
e   0.998402       Incl.   51.1803      +0.9531618      +0.1444791
From 96 observations 2005 July 3-Sept. 3.

Brian G. Marsden             (C) Copyright 2005 MPC           M.P.E.C. 2005-R46

Read MPEC 2005-R45 Read MPEC 2005-R47


Our Web policy. Index to the CBAT/MPC/ICQ pages.


Valid HTML 4.01!